This is the latest recevied weather packets stored in our database for station/object OE3PDB-3. If no packets are shown the sender has not sent any weather packets the latest 10 day(s).
| Time | Temp. | Humidity | Pressure | Rain* | Wind** | Luminosity | Snow |
|---|---|---|---|---|---|---|---|
| 1787683828 | 18.33° C | 69% | 1015.2 hPa | 0 mm | - | - | - |
| 1787683228 | 18.89° C | 69% | 1015 hPa | 0 mm | - | - | - |
| 1787682628 | 18.89° C | 68% | 1014.7 hPa | 0 mm | - | - | - |
| 1787682029 | 18.89° C | 68% | 1014.5 hPa | 0 mm | - | - | - |
| 1787681429 | 18.89° C | 68% | 1014.5 hPa | 0 mm | - | - | - |
| 1787680829 | 18.89° C | 68% | 1014.4 hPa | 0 mm | - | - | - |
| 1787680229 | 18.89° C | 67% | 1014.3 hPa | 0 mm | - | - | - |
| 1787679629 | 18.89° C | 67% | 1014.2 hPa | 0 mm | - | - | - |
| 1787679029 | 19.44° C | 66% | 1014.3 hPa | 0 mm | - | - | - |
| 1787678429 | 19.44° C | 65% | 1014.1 hPa | 0 mm | - | - | - |
| 1787677829 | 19.44° C | 64% | 1014 hPa | 0 mm | - | - | - |
| 1787677229 | 19.44° C | 64% | 1014 hPa | 0 mm | - | - | - |
| 1787676629 | 19.44° C | 64% | 1013.9 hPa | 0 mm | - | - | - |
| 1787676029 | 20° C | 64% | 1013.9 hPa | 0 mm | - | - | - |
| 1787675429 | 20° C | 63% | 1013.6 hPa | 0 mm | - | - | - |
| 1787674829 | 20.56° C | 60% | 1013.5 hPa | 0 mm | - | - | - |
| 1787674229 | 21.11° C | 60% | 1013.5 hPa | 0 mm | - | - | - |
| 1787673629 | 21.11° C | 59% | 1013.5 hPa | 0 mm | - | - | - |
| 1787673029 | 21.11° C | 58% | 1013.5 hPa | 0 mm | - | - | - |
| 1787672429 | 21.67° C | 56% | 1013.4 hPa | 0 mm | - | - | - |
| 1787671829 | 21.67° C | 55% | 1013.4 hPa | 0 mm | - | - | - |
| 1787671229 | 22.22° C | 54% | 1013.3 hPa | 0 mm | - | - | - |
| 1787670629 | 21.67° C | 54% | 1013.3 hPa | 0 mm | - | - | - |
| 1787670029 | 21.67° C | 54% | 1012.8 hPa | 0 mm | - | - | - |
| 1787669429 | 22.22° C | 53% | 1012.6 hPa | 0 mm | - | - | - |
* Rain latest hour (hover to see other rain measurements)
** Current wind speed in m/s (hover to see current wind gust speed)